When you browse on this site, cookies collect data to enhance your experience and personalize the content and advertising you see.
Visit our Privacy Policy to learn more. By continuing to use the site, you agree to this use of cookies and data.
  • In Austria
  • List of Countries
  • For 7 days
  • Water Temperature
  • Satellite Maps
  • Weather Map
  • News
  • Weather Widgets
  • user-avatar
    Login

    Hourly Weather Fakuoka

    Today, 19 February, Tuesday

    Time Temperature Precipitation Wind Pressure Humidity
    00:00 +9°C° 0.3 mm 1 mps 745 mmHg 75%
    01:00 +9°C° 0.9 mm 1 mps 745 mmHg 78%
    02:00 +9°C° 0.9 mm 1 mps 744 mmHg 82%
    03:00 +9°C° 0 mm 1 mps 744 mmHg 88%
    04:00 +8°C° 2.3 mm 2 mps 743 mmHg 89%
    05:00 +8°C° 2.3 mm 2 mps 742 mmHg 90%
    06:00 +9°C° 2.3 mm 2 mps 741 mmHg 91%
    07:00 +9°C° 2 mm 2 mps 741 mmHg 91%
    08:00 +10°C° 2 mm 3 mps 740 mmHg 91%
    09:00 +10°C° 0 mm 6 mps 739 mmHg 92%
    10:00 +12°C° 1.5 mm 5 mps 739 mmHg 93%
    11:00 +13°C° 1.5 mm 5 mps 739 mmHg 94%
    12:00 +14°C° 1.5 mm 4 mps 739 mmHg 96%
    13:00 +15°C° 0 mm 5 mps 739 mmHg 88%
    14:00 +16°C° 0 mm 5 mps 739 mmHg 81%
    15:00 +18°C° 0 mm 4 mps 739 mmHg 77%
    16:00 +17°C° 0 mm 4 mps 740 mmHg 80%
    17:00 +16°C° 0 mm 3 mps 740 mmHg 83%
    18:00 +13°C° 0 mm 3 mps 741 mmHg 86%
    19:00 +13°C° 0.1 mm 3 mps 741 mmHg 85%
    20:00 +12°C° 0.1 mm 3 mps 742 mmHg 84%
    21:00 +12°C° 0 mm 3 mps 742 mmHg 84%
    22:00 +11°C° 0.1 mm 3 mps 742 mmHg 83%
    23:00 +11°C° 0.1 mm 3 mps 743 mmHg 82%

    Tomorrow, 20 February, Wednesday

    Time Temperature Precipitation Wind Pressure Humidity
    00:00 +11°C° 0.1 mm 3 mps 743 mmHg 82%
    01:00 +10°C° 0 mm 3 mps 743 mmHg 81%
    02:00 +10°C° 0 mm 3 mps 743 mmHg 81%
    03:00 +9°C° 0 mm 3 mps 743 mmHg 80%
    04:00 +9°C° 0 mm 3 mps 744 mmHg 79%
    05:00 +9°C° 0 mm 3 mps 744 mmHg 78%
    06:00 +8°C° 0 mm 3 mps 744 mmHg 76%
    07:00 +9°C° 0 mm 3 mps 744 mmHg 74%
    08:00 +9°C° 0 mm 3 mps 745 mmHg 71%
    09:00 +9°C° 0 mm 3 mps 745 mmHg 69%
    10:00 +9°C° 0 mm 3 mps 746 mmHg 67%
    11:00 +8°C° 0 mm 4 mps 746 mmHg 65%
    12:00 +8°C° 0 mm 4 mps 746 mmHg 63%
    13:00 +9°C° 0 mm 3 mps 746 mmHg 62%
    14:00 +9°C° 0 mm 3 mps 746 mmHg 61%
    15:00 +10°C° 0 mm 3 mps 746 mmHg 60%
    16:00 +9°C° 0 mm 3 mps 746 mmHg 61%
    17:00 +9°C° 0 mm 3 mps 746 mmHg 62%
    18:00 +8°C° 0 mm 2 mps 746 mmHg 63%
    19:00 +8°C° 0 mm 2 mps 746 mmHg 64%
    20:00 +7°C° 0 mm 2 mps 747 mmHg 65%
    21:00 +7°C° 0 mm 2 mps 747 mmHg 66%
    22:00 +8°C° 0 mm 1 mps 747 mmHg 66%
    23:00 +7°C° 0 mm 1 mps 747 mmHg 67%

    Day after tomorrow, 21 February, Thursday

    Time Temperature Precipitation Wind Pressure Humidity
    00:00 +7°C° 0 mm 1 mps 747 mmHg 68%
    01:00 +7°C° 0 mm 1 mps 747 mmHg 67%
    02:00 +7°C° 0 mm 1 mps 747 mmHg 66%
    03:00 +7°C° 0 mm 1 mps 747 mmHg 66%
    04:00 +7°C° 0 mm 1 mps 747 mmHg 67%
    05:00 +7°C° 0 mm 1 mps 746 mmHg 68%
    06:00 +7°C° 0 mm 1 mps 746 mmHg 69%
    07:00 +7°C° 0 mm 1 mps 747 mmHg 67%
    08:00 +8°C° 0 mm 1 mps 747 mmHg 64%
    09:00 +9°C° 0 mm 1 mps 747 mmHg 61%
    10:00 +9°C° 0 mm 2 mps 747 mmHg 57%
    11:00 +10°C° 0 mm 2 mps 747 mmHg 53%
    12:00 +12°C° 0 mm 2 mps 747 mmHg 48%
    13:00 +12°C° 0 mm 2 mps 747 mmHg 47%
    14:00 +12°C° 0 mm 2 mps 746 mmHg 45%
    15:00 +12°C° 0 mm 3 mps 746 mmHg 44%
    16:00 +11°C° 0 mm 3 mps 746 mmHg 48%
    17:00 +10°C° 0 mm 3 mps 746 mmHg 52%
    18:00 +9°C° 0 mm 3 mps 746 mmHg 55%
    19:00 +8°C° 0 mm 3 mps 746 mmHg 57%
    20:00 +8°C° 0 mm 2 mps 746 mmHg 59%
    21:00 +7°C° 0 mm 2 mps 746 mmHg 61%
    22:00 +7°C° 0 mm 2 mps 746 mmHg 63%
    23:00 +7°C° 0 mm 2 mps 746 mmHg 66%

    22 February, Friday

    Time Temperature Precipitation Wind Pressure Humidity
    00:00 +8°C° 0 mm 1 mps 746 mmHg 68%
    01:00 +7°C° 0 mm 1 mps 746 mmHg 68%
    02:00 +7°C° 0 mm 1 mps 745 mmHg 69%
    03:00 +7°C° 0 mm 1 mps 745 mmHg 69%
    04:00 +7°C° 0 mm 1 mps 745 mmHg 69%
    05:00 +7°C° 0 mm 1 mps 744 mmHg 68%
    06:00 +7°C° 0 mm 1 mps 744 mmHg 68%
    07:00 +8°C° 0 mm 1 mps 744 mmHg 67%
    08:00 +8°C° 0 mm 1 mps 744 mmHg 65%
    09:00 +8°C° 0 mm 2 mps 744 mmHg 64%
    10:00 +9°C° 0 mm 1 mps 744 mmHg 61%
    11:00 +10°C° 0 mm 1 mps 743 mmHg 58%
    12:00 +11°C° 0 mm 1 mps 743 mmHg 54%
    13:00 +10°C° 0.5 mm 1 mps 742 mmHg 59%
    14:00 +10°C° 0.5 mm 1 mps 741 mmHg 63%
    15:00 +10°C° 0.5 mm 1 mps 741 mmHg 68%
    16:00 +9°C° 1.4 mm 1 mps 740 mmHg 73%
    17:00 +8°C° 1.4 mm 2 mps 740 mmHg 78%
    18:00 +7°C° 1.4 mm 2 mps 739 mmHg 83%
    19:00 +7°C° 1.4 mm 2 mps 740 mmHg 84%
    20:00 +7°C° 1.4 mm 3 mps 740 mmHg 86%
    21:00 +7°C° 1.4 mm 3 mps 740 mmHg 88%
    22:00 +7°C° 0.7 mm 3 mps 740 mmHg 86%
    23:00 +7°C° 0.7 mm 3 mps 740 mmHg 84%

    23 February, Saturday

    Time Temperature Precipitation Wind Pressure Humidity
    00:00 +6°C° 0.7 mm 4 mps 740 mmHg 82%
    01:00 +7°C° 0.1 mm 3 mps 740 mmHg 79%
    02:00 +7°C° 0.1 mm 3 mps 740 mmHg 77%
    03:00 +7°C° 0.1 mm 3 mps 739 mmHg 74%
    04:00 +7°C° 0 mm 3 mps 740 mmHg 74%
    05:00 +7°C° 0 mm 2 mps 740 mmHg 75%
    06:00 +7°C° 0 mm 2 mps 740 mmHg 75%
    07:00 +8°C° 0.1 mm 2 mps 741 mmHg 74%
    08:00 +8°C° 0.1 mm 3 mps 741 mmHg 73%
    09:00 +8°C° 0.1 mm 4 mps 742 mmHg 73%
    10:00 +10°C° 0 mm 4 mps 742 mmHg 66%
    11:00 +11°C° 0 mm 4 mps 742 mmHg 59%
    12:00 +12°C° 0 mm 5 mps 742 mmHg 53%
    13:00 +12°C° 0 mm 5 mps 742 mmHg 52%
    14:00 +11°C° 0 mm 6 mps 742 mmHg 52%
    15:00 +11°C° 0 mm 6 mps 742 mmHg 51%
    16:00 +10°C° 0 mm 6 mps 743 mmHg 53%
    17:00 +8°C° 0 mm 6 mps 743 mmHg 55%
    18:00 +7°C° 0 mm 6 mps 744 mmHg 57%
    19:00 +7°C° 0 mm 5 mps 744 mmHg 58%
    20:00 +6°C° 0 mm 5 mps 745 mmHg 59%
    21:00 +6°C° 0 mm 5 mps 746 mmHg 60%
    22:00 +5°C° 0 mm 4 mps 746 mmHg 60%
    23:00 +5°C° 0 mm 4 mps 746 mmHg 61%

    24 February, Sunday

    Time Temperature Precipitation Wind Pressure Humidity
    00:00 +4°C° 0 mm 4 mps 747 mmHg 61%
    01:00 +4°C° 0 mm 4 mps 747 mmHg 62%
    02:00 +4°C° 0 mm 3 mps 747 mmHg 62%
    03:00 +4°C° 0 mm 3 mps 747 mmHg 63%
    04:00 +4°C° 0 mm 3 mps 747 mmHg 64%
    05:00 +4°C° 0 mm 2 mps 747 mmHg 66%
    06:00 +4°C° 0 mm 2 mps 747 mmHg 67%
    07:00 +5°C° 0 mm 2 mps 747 mmHg 64%
    08:00 +6°C° 0 mm 2 mps 747 mmHg 62%
    09:00 +7°C° 0 mm 3 mps 747 mmHg 59%
    10:00 +8°C° 0 mm 2 mps 747 mmHg 53%
    11:00 +9°C° 0 mm 2 mps 747 mmHg 47%
    12:00 +12°C° 0 mm 2 mps 747 mmHg 41%
    13:00 +13°C° 0 mm 2 mps 747 mmHg 39%
    14:00 +13°C° 0 mm 2 mps 746 mmHg 37%
    15:00 +14°C° 0 mm 1 mps 746 mmHg 35%
    16:00 +13°C° 0 mm 1 mps 746 mmHg 39%
    17:00 +12°C° 0 mm 1 mps 746 mmHg 43%
    18:00 +11°C° 0 mm 1 mps 746 mmHg 46%
    19:00 +10°C° 0 mm 1 mps 746 mmHg 49%
    20:00 +10°C° 0 mm 1 mps 746 mmHg 51%
    21:00 +8°C° 0 mm 0 mps 747 mmHg 53%
    22:00 +8°C° 0 mm 0 mps 746 mmHg 55%
    23:00 +8°C° 0 mm 0 mps 746 mmHg 56%
    Show more